Satellite-Ground Cal/Val Region Overpasses Predictions

Prediction of Satellite NPP Overpassing Cal/Val Region: PacNW

Region Location: (Latitude: 10.00, Longitude: 139.50) to (Latitude: 22.70, Longitude: 165.60).

Table of predicted overpasses for the next 14.0 days since TLE Epoch: 11/20/2021
Interval Starting Time Starting Location Ending Time Ending Location
1 11/20/2021 03:12:44 ( 10.03, 151.72) 11/20/2021 03:16:19 ( 22.65, 148.72)
2 11/20/2021 15:44:37 ( 22.67, 148.94) 11/20/2021 15:48:12 ( 10.05, 145.95)
3 11/21/2021 02:53:42 ( 10.05, 156.48) 11/21/2021 02:57:17 ( 22.67, 153.48)
4 11/21/2021 15:25:35 ( 22.65, 153.70) 11/21/2021 15:29:10 ( 10.02, 150.70)
5 11/22/2021 02:34:38 ( 10.01, 161.24) 11/22/2021 02:38:14 ( 22.69, 158.23)
6 11/22/2021 15:06:31 ( 22.68, 158.47) 11/22/2021 15:10:07 ( 10.00, 155.45)
7 11/23/2021 02:16:06 ( 11.80, 165.59) 11/23/2021 02:19:11 ( 22.66, 163.00)
8 11/23/2021 03:57:06 ( 10.04, 140.62) 11/23/2021 03:58:28 ( 14.86, 139.51)
9 11/23/2021 14:47:29 ( 22.66, 163.22) 11/23/2021 14:51:04 ( 10.04, 160.22)
10 11/24/2021 03:38:02 ( 10.01, 145.39) 11/24/2021 03:41:38 ( 22.69, 142.38)
11 11/24/2021 14:31:15 ( 12.72, 165.60) 11/24/2021 14:32:01 ( 10.02, 164.98)
12 11/24/2021 16:09:55 ( 22.69, 142.61) 11/24/2021 16:13:31 ( 10.01, 139.60)
13 11/25/2021 03:19:00 ( 10.03, 150.14) 11/25/2021 03:22:35 ( 22.65, 147.15)
14 11/25/2021 15:50:53 ( 22.67, 147.37) 11/25/2021 15:54:28 ( 10.04, 144.37)
15 11/26/2021 02:59:57 ( 10.05, 154.90) 11/26/2021 03:03:32 ( 22.67, 151.90)
16 11/26/2021 15:31:50 ( 22.64, 152.12) 11/26/2021 15:35:25 ( 10.02, 149.12)
17 11/27/2021 02:40:54 ( 10.02, 159.67) 11/27/2021 02:44:30 ( 22.70, 156.65)
18 11/27/2021 15:12:47 ( 22.68, 156.89) 11/27/2021 15:16:22 ( 10.06, 153.89)
19 11/28/2021 02:21:52 ( 10.04, 164.42) 11/28/2021 02:25:27 ( 22.66, 161.42)
20 11/28/2021 14:53:44 ( 22.65, 161.64) 11/28/2021 14:57:19 ( 10.03, 158.65)
21 11/29/2021 03:44:18 ( 10.02, 143.81) 11/29/2021 03:47:54 ( 22.70, 140.80)
22 11/29/2021 14:35:38 ( 19.35, 165.59) 11/29/2021 14:38:17 ( 10.01, 163.40)
23 11/29/2021 16:16:11 ( 22.68, 141.04) 11/29/2021 16:17:58 ( 16.40, 139.51)
24 11/30/2021 03:25:16 ( 10.04, 148.57) 11/30/2021 03:28:51 ( 22.66, 145.57)
25 11/30/2021 15:57:08 ( 22.65, 145.79) 11/30/2021 16:00:43 ( 10.03, 142.79)
26 12/01/2021 03:06:12 ( 10.01, 153.33) 12/01/2021 03:09:48 ( 22.69, 150.32)
27 12/01/2021 15:38:05 ( 22.69, 150.56) 12/01/2021 15:41:41 ( 10.01, 147.55)
28 12/02/2021 02:47:10 ( 10.03, 158.09) 12/02/2021 02:50:45 ( 22.66, 155.09)
29 12/02/2021 15:19:02 ( 22.66, 155.31) 12/02/2021 15:22:37 ( 10.04, 152.31)
30 12/03/2021 02:28:07 ( 10.06, 162.84) 12/03/2021 02:31:42 ( 22.68, 159.84)
